Location: Unspecified
(0.0000°N, 0.0000°E)
Time: 22:05:17
(UTC+02:00)

ARIANE 5 R/B - Visible Passes

Search period start: 25 July 2016 00:00
Search period end: 04 August 2016 00:00
Orbit: 567 x 35559 km, 5.5° (Epoch: 24 July)

Date Brightness Start Highest point End Pass type
(mag) Time Alt. Az. Time Alt. Az. Time Alt. Az.
25 Jul 6.9 19:17:25 10° W 21:04:22 67° WSW 05:12:43 10° E visible
26 Jul 7.5 16:10:40 10° W 22:30:22 84° S 02:10:27 10° E visible
27 Jul 5.9 13:09:57 10° WNW 21:13:59 47° E 22:33:43 31° E visible
28 Jul 10.6 21:40:01 10° W 23:11:46 31° W 02:56:06 10° W visible
29 Jul 4.2 06:55:04 14° W 07:10:28 66° N 07:14:47 10° ENE visible
29 Jul 6.5 18:16:38 10° W 20:01:31 80° SW 04:14:44 10° E visible
30 Jul 7.3 15:12:22 10° W 23:26:41 82° SE 00:31:31 71° ESE visible
31 Jul 9.2 16:11:02 10° E 20:15:13 33° E 21:39:34 17° E visible
01 Aug 6.8 20:31:20 10° W 22:13:09 44° W 06:17:07 10° ENE visible
02 Aug 7.3 17:16:54 10° W 20:32:13 84° S 03:16:32 10° E visible
